Orbital Elements at Epoch 2459200.5 (2020-Dec-17.0) TDB
Reference: JPL 28 (heliocentric ecliptic J2000)
Element | Value | Uncertainty (1-sigma) | Units |
e | .3051096710191097 | 2.7344e-08 | |
a | 3.158845571343022 | 1.6684e-08 | au |
q | 2.195051238270381 | 8.7228e-08 | au |
i | 11.97438117545174 | 2.5379e-06 | deg |
node | 235.62466298117 | 7.6247e-06 | deg |
peri | 161.3355727604305 | 8.1879e-06 | deg |
M | 155.8992799882773 | 7.4292e-06 | deg |
tp | 2458312.459796469393 (2018-Jul-12.95979647) | 3.7726e-05 | TDB |
period | 2050.647528937002 5.61 | 1.6246e-05 4.448e-08 | d yr |
n | .1755543041502671 | 1.3908e-09 | deg/d |
Q | 4.122639904415663 | 2.1774e-08 | au |
|
| | Orbit Determination Parameters
Additional Information
|